FW6260 Weather Reports


time (UTC)temp
C
wind
direction
speed
KPH
gust
KPH
rain 1hr
cm
rain 24hr
cm
rain mn
cm
humidity
%
barometer
mb
20260906140107 23 145 0.0 4.8 0.00 0.00 0.00 41
20260906133037 23 164 1.6 3.2 0.00 0.00 0.00 44
20260906130108 22 148 1.6 9.7 0.00 0.00 0.00 49
20260906123037 21 157 1.6 4.8 0.00 0.00 0.00 51
20260906120108 21 138 1.6 9.7 0.00 0.00 0.00 55
20260906113058 20 169 1.6 4.8 0.00 0.00 0.00 57
20260906110109 20 126 1.6 4.8 0.00 0.00 0.00 58
20260906103039 20 157 1.6 6.4 0.00 0.00 0.00 60
20260906100110 20 205 1.6 6.4 0.00 0.00 0.00 61
20260906093040 18 133 0.0 4.8 0.00 0.00 0.00 62
20260906090111 18 158 1.6 4.8 0.00 0.00 0.00 63
20260906083040 17 137 0.0 3.2 0.00 0.00 0.00 66
20260906080112 17 126 1.6 3.2 0.00 0.00 0.00 71
20260906073101 15 157 0.0 3.2 0.00 0.00 0.00 76
20260906070113 13 146 0.0 1.6 0.00 0.00 0.00 82
20260906063042 11 122 0.0 3.2 0.00 0.00 0.00 89
20260906060114 9 128 0.0 3.2 0.00 0.00 0.00 96
20260906053104 7 140 0.0 3.2 0.00 0.00 0.00 98
20260906050135 7 143 0.0 3.2 0.00 0.00 0.00 98
20260906043044 7 130 0.0 1.6 0.00 0.00 0.00 98
20260906040118 7 0.0 1.6 0.00 0.08 0.00 98
20260906033046 7 0.0 0.0 0.00 0.20 0.00 97
20260906030037 8 0.0 0.0 0.00 0.46 0.00 97
20260906023047 8 0.0 0.0 0.00 0.46 0.00 96
20260906020018 8 0.0 0.0 0.00 0.51 0.00 96
20260906013048 9 140 0.0 1.6 0.00 0.51 0.00 95
20260906010019 10 132 0.0 1.6 0.00 0.51 0.00 94
20260906003049 10 143 0.0 3.2 0.00 0.51 0.00 94
20260906000020 10 0.0 1.6 0.00 0.51 0.00 93
20260905233050 10 0.0 1.6 0.00 0.51 0.00 92
20260905230021 11 139 0.0 1.6 0.00 0.51 0.00 91
20260905223051 11 137 0.0 3.2 0.00 0.51 0.00 88
20260905220021 11 125 0.0 1.6 0.00 0.51 0.00 88
20260905213051 12 0.0 1.6 0.00 0.51 0.51 87
20260905210022 12 0.0 1.6 0.00 0.51 0.51 86
20260905203052 13 154 0.0 1.6 0.00 0.51 0.51 82
20260905200024 14 123 0.0 1.6 0.00 0.51 0.51 79
20260905193053 15 161 0.0 3.2 0.00 0.51 0.51 75
20260905190023 15 107 0.0 1.6 0.00 0.51 0.51 75
20260905183054 16 0.0 1.6 0.00 0.51 0.51 69
20260905180025 18 141 0.0 3.2 0.00 0.51 0.51 61
20260905173055 20 175 1.6 9.7 0.00 0.51 0.51 53
20260905170025 21 227 3.2 12.9 0.00 0.51 0.51 51
20260905163116 22 251 4.8 16.1 0.00 0.51 0.51 49
20260905160046 22 264 4.8 17.7 0.00 0.51 0.51 50
20260905153056 23 234 4.8 17.7 0.00 0.51 0.51 48
20260905150047 23 248 4.8 20.9 0.00 0.51 0.51 49
20260905143058 22 256 6.4 25.7 0.00 0.51 0.51 49